AirNav   Air Wisconsin Up To $57,000 Bonus
 
 1124 users online  

H97 Pawnee Municipal Airport
Pawnee, Oklahoma, USA

GOING TO PAWNEE?


FAA INFORMATION EFFECTIVE 03 NOVEMBER 2022

Location

FAA Identifier: H97
Lat/Long: 36-22-38.3200N 096-48-18.7500W
36-22.638667N 096-48.312500W
36.3773111,-96.8052083
(estimated)
Elevation: 875 ft. / 267 m (estimated)
Variation: 06E (1985)
From city: 2 miles N of PAWNEE, OK
Time zone: UTC -6 (UTC -5 during Daylight Saving Time)
Zip code: 74058

Airport Operations

Airport use: Open to the public
Activation date: 11/1965
Control tower: no
ARTCC: KANSAS CITY CENTER
FSS: MC ALESTER FLIGHT SERVICE STATION
NOTAMs facility: MLC (NOTAM-D service available)
Attendance: UNATNDD
FOR ARPT ATTENDANT CALL POLICE DEPT 918-762-3166.
Wind indicator: yes
Segmented circle: yes

Airport Communications

CTAF: 122.9
WX ASOS at SWO (19 nm SW): 135.725 (405-743-8150)

Nearby radio navigation aids

VOR radial/distance  VOR name  Freq  Var
SWOr048/16.2STILLWATER VOR/DME108.4007E
PERr136/28.0PIONEER VORTAC113.2006E

Airport Services

Parking: tiedowns
Airframe service: NONE
Powerplant service: NONE
Bottled oxygen: NONE
Bulk oxygen: NONE

Runway Information

Runway 18/36

Dimensions: 2133 x 100 ft. / 650 x 30 m
SOUTH 300 FT MUDDY AND SOFT WHEN WET.
Surface: turf, in fair condition
RUNWAY 18  RUNWAY 36
Latitude: 36-22.813333N36-22.464000N
Longitude: 096-48.291667W096-48.333333W
Elevation: 875.0 ft.867.0 ft.
Traffic pattern: leftleft
Obstructions: 39 ft. trees, 195 ft. from runway, 71 ft. right of centerline, 5:1 slope to clear39 ft. trees, 75 ft. left of centerline

Airport Ownership and Management from official FAA records

Ownership: Publicly-owned
Owner: CITY OF PAWNEE
CITY HALL, 510 ILLINOIS ST
PAWNEE, OK 74058
Phone 918-762-2658
Manager: TOM BRIGGS
CITY HALL, 510 ILLINOIS ST
PAWNEE, OK 74058
Phone 918-762-2658
MAYOR.

Airport Operational Statistics

Aircraft operations: 100/year *
100% transient general aviation
* for 12-month period ending 19 November 2020

Additional Remarks

FOR CD CTC KANSAS CITY ARTCC AT 913-254-8508.

Instrument Procedures

There are no published instrument procedures at H97.

Some nearby airports with instrument procedures:

KSWO - Stillwater Regional Airport (19 nm SW)
F22 - Perry Municipal Airport (23 nm W)
KPNC - Ponca City Regional Airport (26 nm NW)
KCUH - Cushing Municipal Airport (26 nm S)
KOWP - William R Pogue Municipal Airport (34 nm E)
 
Loc | Ops | Rwys | IFR | FBO | Links
Com | Nav | Svcs | Stats | Notes
Area around H97 (Pawnee Municipal Airport)
 
Road maps at: MapQuest Bing Google
 
Aerial photo
WARNING: Photo may not be current or correct
Aerial photo of H97 (Pawnee Municipal Airport)
Do you have a better or more recent aerial photo of Pawnee Municipal Airport that you would like to share? If so, please send us your photo.

 
Sectional chart

 
Airport distance calculator
Flying to Pawnee Municipal Airport? Find the distance to fly.

From to H97

Sunrise and sunset
Times for 26-Nov-2022
 Local
(UTC-6)
 Zulu
(UTC)
Morning civil twilight06:4912:49
Sunrise07:1713:17
Sunset17:1323:13
Evening civil twilight17:4123:41

Current date and time
Zulu (UTC)  26-Nov-2022 19:38:30
Local (UTC-6)  26-Nov-2022 13:38:30
 
METAR
KSWO 
18nm SW 
261920Z 05011KT 3SM -RA BR OVC004 09/08 A2969 RMK AO2 PRESFR P0005 T00940083
KPNC 
26nm NW 
261853Z AUTO 03011KT 10SM OVC006 09/08 A2975 RMK AO2 RAE25 CIG 005V009 PRESFR SLP075 P0001 T00940083
KCUH 
26nm S 
261915Z AUTO 06008KT 5SM -DZ OVC003 09/08 A2969 RMK AO2 T00880083
KOWP 
34nm E 
261915Z AUTO 00000KT 1 1/4SM OVC004 11/10 A2975 RMK AO2 P0003 T01070101
TAF
KSWO 
18nm SW 
261727Z 2618/2718 05005KT 2SM -RA BR OVC005 FM270400 32007KT 5SM BR OVC007 PROB30 2704/2708 4SM -DZ OVC007 FM271000 32012G18KT 6SM BR BKN011 FM271500 33014G23KT P6SM SCT020
NOTAMs
Click for the latest NOTAMs
NOTAMs are issued by the DoD/FAA and will open in a separate window not controlled by AirNav.

 

 
 

Would you like to see your business listed on this page?

 If your business provides an interesting product or service to pilots, flight crews, aircraft, or users of the Pawnee Municipal Airport, you should consider listing it here.  To start the listing process, click on the button below
 
Add a business
 

Other Pages about Pawnee Municipal Airport

Update a link
 
Copyright © AirNav, LLC. All rights reserved. Privacy Policy  Contact